RH
101 101 101 100 101 101 100 100 97 95 96 96 97 97 94 89 87 86 76 64 57 51 51 56 60 57 54 53 46 43 39 36 43 56 54 28 12 18 19 17 16 14 11 7 11 18 21 22 21 22 29 34 40 37 36 63 83 83 89 92 98 99 91 84 82 85 86 87 87 84 82 77 74 75 69 67 68 54 42 37 30 32 33 34 38 38 40 42
93 91 85 81 86 91 95 98 98 96 91 84 85 93 94 82 74 72 61 52 48 44 47 54 57 54 50 48 44 45 50 58 69 66 39 12 14 25 21 17 16 15 11 6 10 15 19 22 19 20 27 33 34 31 41 66 75 69 78 87 92 93 79 70 70 74 80 86 85 83 80 74 73 73 66 65 60 50 46 36 31 38 37 37 38 38 41 39
72 64 56 53 58 63 70 74 79 84 78 67 63 71 79 72 61 53 45 42 42 39 40 44 47 49 46 43 41 48 67 75 66 50 29 13 13 19 22 19 12 12 10 5 9 13 18 20 19 21 25 29 28 29 40 57 67 61 68 84 82 77 75 70 70 72 76 82 83 82 78 74 72 67 61 61 58 53 46 36 40 45 41 40 38 39 40 38
57 50 45 44 44 45 50 51 53 57 54 48 43 45 49 48 44 39 35 34 33 32 33 35 41 45 43 39 38 56 80 73 47 30 22 17 13 15 21 20 15 15 9 4 7 11 14 16 19 20 20 23 21 27 38 43 62 73 75 80 71 69 78 77 72 71 74 79 81 79 76 74 71 66 65 64 58 54 47 40 42 43 41 41 39 39 39 39
42 42 41 41 41 41 43 43 44 45 43 41 37 37 35 35 34 30 29 27 27 27 25 29 36 40 40 33 37 63 76 51 30 26 20 16 15 17 20 19 17 14 9 6 7 9 12 15 20 20 18 21 18 24 34 30 47 74 75 66 59 64 80 81 73 70 74 79 79 79 77 73 72 73 78 75 62 51 44 40 38 38 40 38 38 39 38 39
34 34 35 36 36 36 36 36 38 38 39 36 33 32 29 29 27 25 26 23 24 24 22 25 29 35 34 27 42 69 65 32 19 23 18 13 14 17 17 15 13 9 7 8 8 10 15 19 22 22 18 20 20 22 26 26 43 70 71 59 54 63 80 82 75 73 72 79 82 79 75 72 74 77 80 80 73 58 41 35 35 36 37 36 38 38 38 39
32 30 30 30 30 31 30 31 31 32 34 32 29 27 25 25 23 24 23 21 22 21 22 23 28 35 28 28 55 73 58 31 19 20 19 14 12 14 14 12 8 5 8 10 9 12 19 23 22 19 19 19 19 19 19 27 45 64 68 63 62 69 79 78 77 77 75 81 82 74 71 73 75 75 74 72 74 66 41 32 35 34 35 36 37 37 37 37
29 28 27 27 27 28 27 27 27 29 31 31 28 25 24 24 22 22 21 21 21 21 22 20 30 37 32 44 62 59 46 33 23 20 22 17 13 14 12 8 4 4 11 14 11 15 22 24 19 16 19 18 16 16 14 27 49 63 67 66 67 72 76 76 78 80 80 83 79 74 75 76 73 71 72 66 68 65 42 32 34 32 34 36 36 37 36 35
27 26 25 25 25 24 24 24 25 26 28 30 29 25 24 23 23 23 22 22 21 22 19 19 30 32 42 68 70 48 30 21 22 23 23 19 15 11 8 5 2 6 14 16 13 17 22 22 17 15 18 16 15 15 12 30 54 59 62 67 71 76 75 78 82 81 82 83 78 80 83 78 72 69 68 63 65 59 39 33 34 32 34 34 35 35 34 34
26 25 24 23 23 22 22 22 22 23 25 28 29 27 24 22 23 22 23 23 22 22 18 21 26 28 51 71 63 44 21 12 20 25 24 22 16 8 7 7 5 9 14 16 16 19 22 21 15 13 14 13 14 13 13 33 53 55 60 69 76 80 78 79 86 84 80 81 78 80 84 79 74 71 65 61 65 53 34 34 33 31 34 33 34 33 32 32
26 24 23 21 21 21 20 21 21 21 23 26 28 29 26 23 22 22 24 24 24 22 19 22 22 36 65 67 54 39 15 7 12 15 22 22 16 7 7 11 8 9 13 14 17 19 21 19 15 13 12 12 11 13 21 38 50 55 61 72 78 81 83 82 86 87 81 81 78 77 82 81 76 71 63 58 60 47 33 35 32 30 33 32 32 32 32 30
25 24 22 21 20 19 19 19 19 20 22 24 26 27 27 26 22 22 23 25 28 24 21 22 22 47 74 66 54 35 10 9 6 8 18 17 15 10 7 11 9 9 11 11 15 17 17 16 15 15 13 12 11 16 33 46 50 56 64 78 83 80 86 87 87 89 85 83 80 75 79 86 81 69 61 54 49 44 37 36 33 31 32 31 31 32 33 31
24 23 21 20 19 19 18 18 19 19 20 22 24 26 27 27 26 24 26 29 30 25 24 24 27 56 78 61 40 21 8 10 6 6 13 13 15 12 8 9 9 9 9 9 12 13 13 13 13 14 13 12 12 11 27 46 52 59 66 76 84 86 90 87 85 88 87 88 85 79 85 96 89 69 62 54 44 44 40 36 36 33 31 30 31 32 33 32
24 23 21 20 19 18 18 17 18 18 18 20 23 25 26 27 29 27 30 33 31 29 30 31 36 61 75 53 29 15 9 7 6 8 11 14 15 13 10 9 9 10 7 8 10 10 11 11 11 14 12 11 13 8 16 39 51 59 68 74 79 88 94 86 84 88 89 91 85 81 89 96 91 78 70 57 46 45 38 35 36 33 31 31 31 32 33 33
23 22 20 19 18 17 17 17 17 17 17 18 20 24 25 27 30 32 35 35 35 33 33 41 51 61 65 48 27 17 8 3 6 10 12 15 15 14 13 11 12 11 8 8 9 11 12 11 11 14 13 10 12 12 15 27 43 57 68 74 74 83 95 88 83 86 86 87 82 82 91 94 89 81 74 60 50 47 40 37 35 31 31 31 31 32 33 33
22 21 20 18 17 17 16 16 16 16 16 17 18 21 24 27 32 39 44 38 37 38 39 51 60 63 58 36 16 10 7 6 8 11 14 14 13 13 12 11 12 10 9 10 11 13 12 12 14 13 14 13 12 15 17 20 37 51 53 61 72 84 97 92 83 82 80 84 85 86 93 94 84 76 76 67 54 51 45 40 35 31 31 30 31 32 32 33
21 21 19 18 17 16 16 15 15 16 16 16 15 17 22 28 36 47 52 44 42 48 49 47 49 58 54 27 11 9 9 11 12 13 14 12 11 11 10 10 10 9 11 11 13 14 13 13 15 14 14 15 13 15 21 25 36 43 40 52 74 85 91 92 91 85 81 84 86 89 92 89 79 72 77 71 59 57 51 43 38 32 32 32 30 32 33 34
21 20 19 18 17 15 15 14 14 15 15 15 16 17 20 29 42 51 54 50 52 63 62 52 50 52 41 24 16 12 10 12 12 12 11 11 12 10 10 10 8 9 10 12 13 13 14 15 15 17 16 15 15 15 22 29 29 33 42 61 81 87 85 88 90 84 83 86 85 89 92 89 82 74 75 74 64 59 51 45 41 35 33 32 30 33 34 34
20 19 18 17 16 15 15 14 14 14 14 15 15 16 24 39 53 57 56 55 56 57 50 48 52 39 20 15 13 9 11 11 10 12 10 10 12 11 10 9 8 9 10 13 15 14 13 14 17 19 18 15 15 14 16 20 19 27 46 62 75 84 85 81 78 75 78 84 84 84 87 89 88 79 77 78 68 61 56 48 43 40 36 33 32 33 32 34
21 18 17 17 16 15 14 14 13 14 14 15 16 21 31 40 44 47 50 50 50 43 31 29 33 21 8 10 9 9 12 9 9 12 10 10 11 11 10 8 8 8 11 13 13 14 11 14 19 19 17 13 11 11 11 13 13 24 44 54 62 78 83 75 77 83 80 83 85 79 78 84 88 85 81 81 72 66 68 59 48 45 41 36 33 33 33 33
24 20 18 17 15 14 13 13 13 14 14 15 21 28 30 28 24 25 29 31 32 33 29 22 16 12 9 9 8 8 9 8 9 11 12 12 10 13 11 8 10 9 10 10 9 11 10 13 16 13 13 10 9 9 9 11 10 21 44 56 65 77 80 76 83 92 86 86 89 81 82 84 84 87 85 86 80 71 72 65 52 46 43 43 39 34 34 32
26 25 22 18 16 14 13 13 12 14 13 16 29 34 27 21 17 16 18 21 20 19 22 17 9 9 10 10 9 7 8 9 11 12 13 12 11 15 13 10 12 10 8 8 7 10 10 12 11 9 10 8 9 8 8 11 8 23 52 64 69 73 78 85 87 87 82 86 92 87 89 91 86 87 86 87 86 81 78 70 62 54 45 45 45 39 36 33
25 26 26 22 17 14 13 12 12 13 13 19 31 32 24 18 15 15 17 21 20 15 15 11 7 9 9 9 8 6 9 10 14 15 13 11 11 13 14 13 14 11 9 8 8 10 11 10 7 7 9 7 9 7 8 10 7 27 53 60 66 66 71 88 91 86 83 83 87 89 92 95 93 92 90 88 89 90 87 79 79 77 62 51 46 43 39 36
23 24 28 25 18 16 14 11 11 15 17 22 26 21 18 18 15 17 20 21 22 17 13 8 6 8 9 9 7 8 11 11 13 15 11 10 12 12 13 14 13 13 12 8 6 8 8 7 5 6 7 7 9 7 8 9 9 25 39 47 64 60 54 73 86 85 85 83 82 89 96 97 96 95 93 92 91 90 91 87 83 84 79 66 52 46 44 40
21 22 25 24 22 18 14 14 16 17 17 23 24 18 16 17 16 17 21 26 26 18 12 8 7 10 9 8 8 9 11 12 12 12 11 10 10 12 13 11 11 14 13 9 7 6 6 5 5 6 7 6 8 8 8 8 11 21 25 34 53 51 49 68 80 81 90 94 83 83 96 97 94 95 93 95 96 90 91 90 81 80 82 75 63 50 46 45
21 21 21 25 24 17 16 22 21 16 15 17 17 14 14 15 16 16 25 36 32 17 10 8 9 10 10 9 8 8 12 14 12 11 11 10 9 12 13 12 10 11 12 10 8 6 5 5 4 6 7 6 8 7 7 8 16 23 21 29 41 43 55 74 78 78 87 92 80 76 92 99 95 95 91 93 96 91 90 89 79 79 83 80 75 59 48 48
20 20 20 24 24 21 24 23 18 15 17 16 13 14 15 14 14 17 34 46 29 11 8 7 8 8 8 9 6 9 18 16 11 10 10 9 9 10 14 15 11 9 8 9 12 8 5 5 5 7 6 6 7 7 11 13 20 23 16 26 39 41 57 72 72 71 70 76 81 75 81 94 96 93 89 89 94 93 91 88 77 75 81 81 77 63 50 49
20 20 20 23 25 26 26 23 25 26 21 16 15 17 16 15 15 18 39 47 20 6 9 5 6 8 6 8 6 9 15 13 13 12 8 8 10 10 14 15 13 13 9 10 14 9 5 6 6 7 7 8 7 7 14 16 20 22 13 21 33 35 52 65 63 62 59 74 94 80 70 86 92 85 84 87 92 94 90 85 77 73 76 79 77 67 52 46
20 20 20 22 25 26 28 33 37 30 20 18 21 20 16 16 18 23 44 46 16 4 9 6 6 8 6 8 7 8 10 10 14 12 9 10 10 10 14 13 13 15 12 11 13 9 7 7 6 7 6 7 8 9 14 16 18 19 11 18 30 32 45 56 53 53 55 73 90 77 64 78 87 84 88 93 93 90 84 79 75 70 72 76 77 70 56 46
19 21 20 21 26 34 42 43 34 21 16 20 22 19 16 17 23 36 50 40 14 5 7 7 7 6 5 7 8 9 9 11 11 10 11 10 9 10 11 11 11 14 15 12 11 9 7 7 8 9 8 8 11 12 13 13 15 14 10 21 37 40 43 48 47 49 60 70 70 64 60 64 78 87 89 88 83 76 72 73 74 69 70 73 73 69 59 49
18 20 22 22 26 34 40 35 23 14 15 21 20 17 19 22 30 46 45 21 7 8 6 6 7 5 5 7 8 8 9 11 10 11 14 10 11 13 11 13 14 15 18 16 14 11 8 8 9 10 11 10 12 14 13 11 12 13 11 17 29 34 36 40 45 52 66 65 51 52 57 55 65 77 77 72 66 62 63 67 69 68 68 71 70 67 60 51
17 19 21 21 23 26 27 20 12 11 14 19 19 18 25 31 36 43 33 11 8 12 6 5 7 5 6 6 7 8 8 10 9 10 14 14 17 17 13 16 17 19 23 20 16 13 10 9 8 10 12 11 12 15 14 12 12 13 14 18 26 30 31 33 39 48 53 43 33 44 54 56 58 57 59 62 58 57 59 58 61 63 65 68 69 65 61 56
16 18 18 18 19 17 14 10 8 9 12 16 20 22 28 39 40 29 15 8 9 9 5 7 6 5 7 7 8 9 8 9 9 9 11 13 17 16 14 14 13 17 22 20 18 17 14 11 7 10 11 10 12 15 15 14 13 14 15 21 31 33 33 32 32 35 36 28 27 39 49 59 63 52 48 53 53 55 55 53 56 58 60 64 65 62 59 58
14 16 16 15 14 11 8 8 9 8 11 17 23 27 33 41 35 16 7 8 7 6 6 6 6 8 9 7 9 10 9 11 11 10 11 13 19 19 16 14 12 13 16 18 19 19 20 18 11 11 12 11 11 12 14 13 13 14 12 16 27 28 29 33 30 28 31 28 26 36 51 62 65 57 48 46 47 51 51 51 54 57 59 61 59 58 58 58
15 16 16 14 11 8 6 8 8 8 15 22 26 32 38 38 24 9 9 9 5 6 6 6 8 10 10 8 10 9 11 14 12 12 14 17 24 25 18 15 14 12 15 21 22 19 21 20 12 10 11 11 12 11 10 11 14 14 11 14 22 21 20 25 26 23 26 29 28 43 66 68 59 54 49 47 50 52 53 55 55 57 60 61 58 58 57 57
16 22 26 23 13 7 7 10 9 10 18 25 31 36 34 26 13 7 10 7 5 7 7 8 10 10 11 11 11 9 10 14 13 16 20 19 22 23 16 13 12 11 14 18 20 20 23 21 13 10 11 10 12 11 8 12 17 15 14 17 16 13 13 20 26 21 21 28 32 50 72 69 61 59 54 52 57 59 61 62 60 59 60 63 62 59 58 59
19 25 31 28 16 9 11 15 16 17 21 26 34 37 26 15 8 6 8 6 6 6 7 12 12 10 11 11 12 10 10 13 13 17 22 20 21 20 15 12 11 11 11 13 18 20 21 23 15 10 13 10 10 11 8 9 13 13 14 15 12 11 12 19 27 26 25 27 30 50 72 72 72 75 68 63 63 64 66 64 65 68 66 64 63 62 63 66
28 29 27 26 21 16 14 17 19 19 22 27 35 34 25 15 8 5 7 5 5 6 8 13 13 11 12 12 12 9 10 15 16 17 22 23 22 18 14 13 11 10 9 12 22 22 18 22 19 11 13 12 8 11 12 10 9 11 12 10 11 16 19 22 26 26 29 28 27 46 66 65 65 72 73 71 66 67 70 66 67 75 73 67 68 70 70 75
40 36 24 20 21 16 13 15 17 19 23 29 34 30 20 12 7 6 7 6 5 7 9 11 11 11 12 12 13 10 10 14 15 17 20 22 23 18 13 13 13 11 10 10 18 20 17 22 25 16 13 14 12 11 15 14 10 10 10 9 10 14 18 23 23 21 26 29 30 45 62 65 65 67 69 70 66 68 72 67 64 71 73 70 72 75 75 80
35 32 25 18 14 12 11 13 16 21 26 28 27 23 15 8 6 6 6 5 5 6 8 9 9 11 11 10 12 11 10 11 13 20 22 18 20 18 13 13 12 11 11 10 12 17 18 24 29 23 16 18 18 14 14 13 12 11 11 12 11 11 13 16 17 16 19 25 31 44 64 77 78 75 66 61 64 67 69 68 66 66 69 69 70 73 75 79
30 24 25 16 10 11 12 15 18 21 24 24 22 18 12 8 6 5 4 5 5 6 7 7 8 10 11 12 14 12 11 11 12 19 20 13 16 19 14 12 12 10 11 12 14 18 21 25 30 28 22 23 20 15 12 12 12 11 10 11 11 12 13 14 18 16 11 18 26 42 74 86 76 74 67 58 60 64 65 68 68 65 66 67 68 71 73 75
36 24 22 13 11 14 13 15 18 18 19 20 16 12 10 9 7 5 5 5 5 6 6 6 8 10 10 13 13 12 14 14 12 14 14 10 12 15 12 10 10 9 10 14 16 19 24 27 32 31 25 23 20 16 14 14 13 12 10 10 9 11 12 14 23 21 13 16 17 35 81 92 75 74 75 67 66 65 64 66 65 63 64 66 68 70 71 73
30 24 20 13 12 13 15 19 19 17 18 16 11 7 7 7 5 4 5 6 6 6 6 6 8 10 10 11 11 12 16 16 13 12 13 13 11 10 10 9 8 8 12 19 18 19 26 32 36 38 31 24 19 15 14 14 15 15 11 7 7 10 9 10 17 18 15 16 11 30 77 92 80 81 80 73 71 67 68 72 68 65 64 64 67 68 72 78
27 27 20 15 13 12 18 22 19 18 17 13 11 8 6 6 6 6 6 6 6 6 6 6 7 9 9 9 9 10 15 18 16 13 13 14 12 10 9 6 8 10 14 20 18 15 27 39 42 44 42 40 38 32 30 29 25 21 16 11 8 6 6 8 11 15 19 21 23 48 84 90 83 86 83 78 76 74 77 80 75 70 68 70 74 75 76 83
32 32 22 16 14 13 17 16 13 16 16 13 12 9 8 7 6 6 6 7 6 5 6 6 6 7 7 8 9 10 14 17 18 17 17 15 12 11 11 9 9 10 12 19 18 12 22 39 48 52 51 54 56 50 48 45 33 25 24 24 18 11 15 18 15 16 24 32 46 70 93 95 86 83 82 81 83 84 85 83 77 74 74 77 83 85 83 85
31 29 24 20 16 11 14 12 9 12 12 14 15 10 8 8 6 7 7 6 6 5 7 7 5 6 7 8 10 13 15 14 18 23 21 18 16 13 13 13 11 13 19 23 19 13 18 30 44 55 53 49 50 45 40 36 29 25 27 32 30 28 34 40 38 38 37 46 66 77 85 95 93 85 85 84 84 88 87 85 84 83 82 82 85 89 91 90
33 29 23 28 28 18 14 10 8 10 10 12 15 11 7 7 8 8 6 6 7 6 7 6 4 6 8 9 11 14 16 15 18 22 18 18 19 14 13 13 11 18 27 25 18 17 22 27 34 41 41 35 32 30 26 23 24 28 31 33 35 39 46 52 57 61 55 61 81 83 80 90 92 86 88 84 82 89 89 84 87 90 89 86 86 91 95 94
33 29 22 29 38 32 26 20 14 10 7 10 13 10 8 8 8 8 7 8 8 7 9 9 7 8 8 10 15 17 19 22 23 23 21 21 21 17 16 15 11 16 21 18 16 17 25 35 34 27 25 24 22 22 22 23 27 32 34 35 37 44 52 54 55 61 63 66 76 78 77 84 83 80 83 80 77 85 88 81 83 91 92 89 89 92 95 95
35 36 28 31 38 36 33 27 19 11 10 17 19 10 8 9 8 7 8 9 9 8 13 13 8 8 8 11 18 20 23 30 31 28 25 23 21 21 23 21 16 17 15 14 18 19 26 41 39 26 25 26 21 20 23 27 34 37 37 38 42 46 52 53 52 57 66 70 70 70 73 78 77 71 72 73 71 75 80 80 83 92 94 93 93 94 95 95
46 43 38 42 45 40 33 26 21 15 13 21 22 12 8 9 9 8 8 10 11 10 13 12 10 10 9 11 18 18 19 26 28 26 24 23 23 24 25 23 20 20 16 15 19 18 26 42 39 30 36 36 24 21 26 29 34 39 42 44 47 51 53 55 56 58 68 77 78 78 79 82 79 67 62 66 68 73 83 87 89 93 94 94 96 96 95 95
50 45 43 52 54 47 39 29 24 21 17 18 18 12 9 9 8 9 9 9 11 12 11 10 11 11 10 11 15 14 14 17 18 17 16 18 20 22 23 22 20 20 19 18 19 18 25 40 41 36 45 44 29 24 29 29 30 39 46 50 55 59 60 61 62 65 72 80 85 87 89 91 89 78 70 73 77 82 91 94 94 94 93 93 96 96 96 95
52 49 46 55 59 51 40 31 25 24 20 16 13 11 10 9 8 11 15 14 10 11 11 9 9 12 15 17 18 15 12 11 10 9 9 11 12 12 16 17 16 19 21 20 22 22 23 33 41 42 46 44 34 30 32 37 47 52 49 49 59 65 65 66 68 71 74 80 88 95 97 96 93 87 85 88 90 92 95 95 96 97 95 95 95 95 96 95
Wind_Speed
13 13 13 13 13 12 12 12 12 12 12 12 12 12 12 12 12 12 12 11 11 12 12 13 14 14 14 14 13 14 15 16 14 9 10 9 6 9 8 6 5 4 5 7 8 7 8 10 13 15 12 9 5 6 5 6 2 2 1 2 2 3 2 4 6 5 4 5 5 4 5 3 2 1 1 1 0 5 7 8 13 16 14 19 24 27 29 29
13 14 14 14 14 13 13 12 12 12 12 12 12 12 12 12 11 11 11 10 11 11 12 13 14 15 14 13 12 12 16 17 14 14 16 10 8 9 9 8 6 6 7 8 9 10 9 8 12 13 8 5 4 7 6 4 4 4 2 3 2 4 2 2 6 6 6 7 7 5 5 3 4 3 1 1 4 7 6 9 15 17 18 21 24 26 26 26
15 15 15 15 15 15 14 13 13 13 13 12 12 12 12 11 10 10 10 10 10 10 11 13 13 14 13 12 10 11 14 14 9 10 9 6 11 13 11 11 9 9 10 10 11 13 14 11 12 10 6 5 5 6 5 6 5 2 0 2 3 5 2 2 6 8 7 9 8 5 3 3 5 3 1 3 6 5 6 12 16 18 19 19 19 23 25 23
16 16 16 16 16 16 15 15 14 14 13 13 12 11 11 11 10 10 9 9 9 10 11 12 13 14 12 11 9 10 11 8 3 3 1 2 6 11 14 15 13 12 12 12 11 13 16 16 13 8 6 4 6 6 4 6 5 0 2 2 4 6 4 2 5 9 9 9 8 5 2 4 4 0 1 2 4 4 6 13 17 20 19 18 17 20 22 21
17 17 17 17 17 17 16 16 16 15 14 13 12 11 11 10 10 9 8 9 9 10 12 12 14 13 12 10 8 9 7 2 2 3 3 4 1 7 14 15 14 13 13 12 10 12 15 15 12 9 5 4 6 5 5 7 6 3 3 1 5 7 5 2 3 10 10 7 7 6 4 4 2 3 3 2 2 3 9 14 17 19 17 18 17 17 19 19
18 18 18 18 18 17 17 17 17 16 15 14 13 12 11 10 10 9 9 9 9 10 11 12 14 13 11 10 7 6 3 1 2 2 4 3 1 5 9 10 10 11 11 10 10 11 11 11 9 6 4 4 6 7 7 4 8 5 2 1 3 6 6 2 3 8 9 7 6 5 4 3 5 2 2 2 2 2 11 16 16 17 18 20 18 17 16 15
19 19 19 18 18 18 18 18 17 17 16 15 13 12 11 10 10 10 9 9 9 10 10 12 13 11 11 10 4 2 2 5 7 1 2 2 1 4 6 7 9 11 11 10 11 8 8 10 8 5 4 5 6 9 9 4 12 6 1 2 6 9 7 4 4 7 8 7 3 3 5 5 6 4 0 2 5 5 10 17 16 17 19 20 16 15 15 14
19 19 19 19 19 19 19 19 18 17 16 15 14 13 12 11 10 10 10 10 9 10 9 11 12 9 11 10 3 2 3 7 6 1 2 4 2 4 5 7 9 11 11 12 12 9 8 8 7 5 4 5 6 9 8 5 12 7 4 5 8 9 7 5 5 7 7 5 2 4 5 4 6 5 2 4 6 4 10 17 16 16 17 16 14 15 14 14
20 20 20 20 20 19 19 19 19 18 17 16 14 14 13 12 11 10 10 10 10 10 10 10 10 8 9 7 3 3 2 5 4 2 2 2 3 4 7 8 11 12 11 12 14 12 9 6 6 6 4 7 7 9 9 3 8 7 9 8 8 9 7 5 4 6 6 2 3 5 5 4 3 4 2 5 6 3 11 17 15 16 15 14 14 14 13 12
21 20 20 20 20 20 20 20 19 18 17 16 15 14 14 13 12 11 11 10 10 9 10 10 8 8 7 5 3 2 4 1 3 3 4 3 4 5 9 8 11 12 10 12 13 12 9 7 7 5 5 7 6 9 8 5 10 10 13 11 9 9 7 4 4 6 5 3 3 5 4 2 1 1 2 5 7 4 13 17 15 15 14 14 13 12 12 13
21 21 21 21 21 20 20 20 20 20 19 17 17 16 15 14 13 12 11 10 9 9 9 9 7 7 6 5 3 3 6 7 5 2 2 2 4 6 11 10 11 12 11 11 13 15 14 13 10 4 3 3 4 8 1 13 17 15 16 14 10 8 7 6 5 4 3 3 2 4 5 2 2 1 4 6 7 6 14 16 14 14 12 13 13 11 10 12
21 21 21 21 21 21 20 20 20 20 20 19 18 17 16 15 14 13 11 10 9 7 7 7 5 6 6 4 6 7 6 8 9 6 2 1 4 6 8 10 12 12 13 10 12 17 16 15 13 6 4 4 4 5 5 15 17 16 15 13 8 6 7 5 4 3 3 0 2 3 5 3 2 3 7 7 6 8 14 13 13 13 11 12 11 9 8 10
22 22 21 21 21 20 20 20 20 20 20 20 19 18 18 16 15 13 12 10 8 7 6 5 4 4 4 3 7 8 6 10 11 8 6 6 6 8 8 11 14 14 15 14 15 16 14 14 12 7 6 6 3 4 4 11 15 14 12 10 7 4 4 1 2 3 4 3 5 3 4 1 4 2 5 5 6 11 13 11 11 10 10 11 8 7 7 10
21 22 22 21 21 21 21 20 20 21 21 21 19 19 19 17 17 14 12 10 7 6 5 5 3 3 2 5 10 9 8 11 10 8 9 9 9 12 12 12 14 14 14 16 19 18 14 13 10 6 5 4 3 7 4 7 10 10 10 6 5 4 2 2 2 2 1 2 7 5 3 3 5 4 5 3 6 11 11 10 10 9 9 9 7 7 8 8
21 22 22 21 21 21 21 20 20 21 22 22 21 21 20 18 17 15 12 10 7 5 5 7 4 1 3 7 10 10 6 5 6 9 9 10 10 10 11 12 12 13 14 17 18 16 16 9 4 3 3 4 4 5 3 4 6 8 7 4 4 4 3 3 4 5 4 2 3 4 3 2 4 5 6 4 4 8 9 9 10 11 10 10 7 8 8 7
21 21 21 21 21 21 21 20 20 22 22 22 22 22 21 19 19 16 13 10 6 5 4 5 4 5 3 4 5 6 4 2 4 8 7 9 10 7 8 10 10 12 13 14 12 11 13 5 2 2 3 4 4 3 5 3 4 5 4 5 6 5 5 3 4 7 6 4 2 2 2 3 4 5 6 5 1 4 6 7 10 12 12 10 8 8 9 6
21 21 21 21 21 21 20 20 21 22 23 23 24 24 21 20 20 17 12 7 5 5 5 5 4 5 5 6 5 3 0 2 4 5 6 8 10 7 7 6 7 8 9 9 10 7 6 0 2 2 2 3 4 3 3 4 3 5 4 4 6 5 5 4 2 4 4 4 4 2 2 3 2 4 4 5 3 3 4 6 8 10 11 9 7 9 10 7
22 21 21 21 21 21 20 20 22 23 24 24 25 24 21 20 19 15 8 2 2 3 5 8 6 2 4 7 6 2 5 5 2 4 6 7 9 7 5 5 4 6 6 6 7 6 2 1 3 2 3 3 4 4 4 5 6 4 5 4 6 4 2 3 4 5 6 5 5 3 2 3 4 4 2 4 4 4 4 6 6 8 10 9 8 9 9 8
22 21 21 21 21 21 20 21 22 23 25 26 26 25 19 14 11 8 2 1 1 1 3 4 4 2 4 2 0 2 3 6 3 3 5 6 6 7 6 6 5 5 5 3 4 5 2 1 3 3 4 4 6 7 6 9 10 3 9 7 8 6 2 5 5 5 8 6 5 6 4 4 5 5 2 4 4 2 3 5 5 6 9 9 7 9 10 9
21 21 21 21 21 21 21 21 22 24 25 27 27 20 11 6 4 2 1 3 5 7 9 6 8 6 5 1 0 2 3 1 3 4 5 6 6 6 5 5 4 4 3 3 5 6 4 2 4 4 6 7 9 11 10 12 12 2 11 8 9 8 5 6 4 5 4 3 3 3 2 5 6 6 5 3 4 2 2 3 5 5 7 8 8 10 11 9
21 21 20 20 21 21 21 21 23 24 25 27 23 11 4 5 5 4 2 5 9 12 14 12 9 5 2 2 5 4 2 4 4 5 4 6 7 5 3 3 4 3 4 7 5 5 6 4 5 7 9 11 10 12 12 13 12 2 10 8 8 7 4 5 6 6 4 3 2 1 1 5 5 6 4 1 3 4 3 3 6 6 7 7 8 11 11 8
21 20 21 21 21 21 21 22 23 24 24 23 15 4 7 9 7 9 8 6 11 12 13 14 11 4 3 3 1 3 2 3 5 6 5 5 4 3 4 4 4 4 5 7 4 3 5 5 7 10 10 11 11 11 11 12 11 3 7 6 6 6 6 7 6 8 6 2 2 1 2 3 1 2 3 0 2 2 3 4 3 4 6 7 7 10 11 9
21 21 21 20 21 22 21 22 23 24 24 19 12 8 11 12 11 14 10 4 9 14 9 6 6 1 3 2 5 4 4 4 4 6 8 5 3 3 4 4 5 6 6 6 5 4 4 6 10 12 10 10 10 10 10 10 8 5 7 5 5 7 6 5 4 8 6 2 4 7 2 2 3 4 2 0 2 2 3 8 7 2 3 6 7 8 9 10
21 21 21 20 22 20 21 25 23 20 20 17 17 16 15 12 12 15 8 3 5 10 6 2 4 1 5 4 2 0 4 4 3 4 9 4 5 4 5 6 6 6 5 8 9 7 6 8 12 12 11 10 9 9 9 8 5 8 11 6 7 10 7 7 9 10 6 2 4 8 4 1 3 3 4 2 0 1 1 6 10 5 3 2 5 7 8 9
22 21 21 21 21 19 22 23 15 15 18 15 16 14 12 9 12 14 6 3 3 5 4 2 2 2 5 2 2 1 3 4 2 4 8 6 7 4 3 5 4 4 7 9 10 7 8 8 10 12 11 11 10 8 8 7 5 5 9 10 12 14 10 14 15 11 6 1 4 6 3 2 3 5 7 3 1 3 2 4 12 7 3 4 2 7 7 8
22 22 21 21 21 21 19 11 9 19 19 11 11 14 11 11 15 13 4 2 3 1 3 4 2 2 2 3 3 3 3 1 3 4 5 5 6 4 3 3 2 4 8 7 5 4 5 8 6 9 11 11 10 8 8 7 3 3 8 12 15 15 14 17 16 9 4 2 6 6 2 0 2 5 7 4 4 6 5 8 13 8 3 4 2 6 7 7
23 22 21 20 20 19 12 7 14 20 11 9 17 19 14 15 18 12 2 1 1 1 2 3 1 2 3 4 4 4 1 1 2 2 2 5 6 4 4 5 4 4 5 3 3 2 4 8 9 5 8 9 7 7 5 1 1 1 4 9 17 17 15 18 15 7 4 4 5 7 4 2 3 5 6 7 7 8 8 11 12 9 6 5 4 5 7 7
23 22 22 19 18 17 12 13 17 13 8 12 18 18 17 19 18 9 1 1 1 1 1 2 2 3 6 6 5 3 4 3 2 1 4 5 6 2 4 7 7 6 6 4 3 2 6 8 9 8 8 5 5 7 5 4 1 4 4 6 18 17 14 16 12 6 7 7 4 7 7 3 2 3 6 8 9 11 13 14 13 11 9 7 6 5 7 8
23 22 21 19 17 15 12 13 12 9 13 16 15 18 21 20 13 3 1 3 1 2 0 2 2 3 6 5 5 4 5 3 2 3 4 5 5 4 3 7 10 11 10 6 4 4 3 5 8 8 7 4 5 5 6 6 4 6 7 5 14 14 13 14 9 6 7 5 5 12 11 4 1 4 6 7 9 12 14 14 13 12 11 9 7 6 6 8
23 22 21 19 14 9 9 13 13 9 18 17 16 21 22 14 5 0 2 3 2 2 1 2 1 3 5 4 5 5 4 4 1 2 2 2 4 5 2 7 9 8 9 8 8 9 6 6 8 5 3 3 3 3 2 5 6 8 6 6 10 10 10 8 5 5 5 2 6 15 16 7 2 4 7 9 12 14 13 11 12 13 13 11 9 7 6 7
23 21 20 18 13 7 6 9 11 10 17 18 19 20 15 5 1 1 3 1 2 1 1 3 1 5 3 1 3 3 4 5 2 3 2 1 2 2 1 4 4 4 6 5 6 11 9 6 5 1 3 4 3 4 3 6 7 8 4 5 7 7 5 4 3 5 2 4 6 16 19 11 3 4 9 13 13 13 14 13 15 17 15 13 11 9 7 6
22 20 20 18 15 13 12 11 13 15 16 18 19 12 5 1 2 3 2 1 0 3 2 2 2 6 7 4 1 2 4 1 1 3 3 0 2 3 2 2 2 1 5 4 4 6 6 5 3 5 4 3 4 4 3 4 5 5 4 2 4 3 2 3 3 3 4 4 5 16 17 8 4 4 11 17 14 12 14 14 16 17 16 14 12 10 7 5
21 20 19 16 14 16 18 17 18 17 16 18 14 5 2 2 3 3 2 2 1 3 3 1 2 4 6 5 3 6 4 3 4 4 1 1 1 3 4 5 4 2 2 4 5 4 3 4 5 3 6 3 5 3 2 3 4 5 4 2 4 3 1 2 3 3 4 5 5 18 15 4 3 4 9 17 15 12 13 11 13 15 16 16 13 11 9 6
19 18 18 14 15 16 17 17 16 14 16 15 8 3 3 3 3 3 5 5 3 5 7 4 2 4 4 3 5 7 4 5 8 5 2 1 1 3 3 6 6 1 1 4 3 3 3 3 5 4 6 6 6 7 6 3 2 5 4 2 4 3 2 2 3 2 3 4 5 15 10 1 1 3 4 9 10 9 9 9 11 12 12 14 14 12 10 8
17 16 15 13 16 15 13 13 12 11 12 8 3 3 4 3 3 3 4 3 4 7 10 7 5 4 3 2 6 7 4 4 8 6 4 4 3 4 3 3 4 2 1 3 2 2 4 4 4 4 7 11 8 9 7 4 3 4 2 2 2 3 3 2 3 3 2 1 3 7 3 2 1 4 7 5 7 7 7 7 10 12 12 12 13 13 12 10
16 14 12 13 15 12 10 9 8 9 9 4 3 3 3 3 3 3 2 3 4 6 9 7 5 3 3 2 3 5 3 2 5 4 3 3 1 4 5 2 1 2 2 2 1 3 3 4 9 9 5 11 7 8 6 3 2 3 1 2 4 3 2 1 3 6 3 2 1 4 3 2 1 3 8 6 5 6 6 6 8 11 13 13 12 13 12 10
16 12 10 13 14 9 10 10 8 10 7 2 3 4 5 4 2 3 4 5 6 5 6 4 2 2 4 1 2 3 2 2 3 1 2 2 1 4 7 4 4 2 5 3 1 1 3 4 10 10 4 7 7 9 8 5 4 3 1 4 4 4 3 1 1 4 3 1 2 6 8 2 1 1 3 3 3 6 5 5 6 7 11 13 11 11 11 9
17 11 9 16 19 14 13 12 12 10 4 2 5 6 8 5 1 3 5 6 7 6 4 3 1 1 4 3 4 4 2 3 1 1 2 1 1 4 6 5 4 3 4 3 2 1 3 4 7 8 5 6 8 7 5 6 5 5 4 3 3 3 3 1 2 1 1 3 2 6 9 5 3 3 3 4 6 7 6 7 8 7 9 12 10 11 11 9
13 4 5 15 18 14 13 12 10 6 2 3 5 4 7 6 3 5 2 4 6 5 4 2 1 1 2 2 4 5 2 2 2 3 2 1 2 3 5 3 5 6 6 6 2 1 3 3 4 7 11 8 3 3 2 4 4 5 6 5 2 2 3 3 3 3 2 3 1 4 4 2 1 2 6 9 9 9 9 9 10 10 10 10 9 10 10 9
7 2 6 12 10 12 12 10 6 3 3 4 5 5 6 5 4 3 3 2 4 2 2 3 2 1 3 1 3 3 4 1 2 2 1 2 3 2 4 3 4 7 9 9 4 1 2 2 3 6 12 10 3 1 1 2 2 4 3 4 4 2 3 4 3 3 3 3 2 3 1 1 3 3 5 9 6 6 8 7 7 8 11 11 10 11 10 9
4 3 6 10 12 12 9 6 3 3 4 5 7 9 6 3 5 8 3 2 2 1 1 4 3 1 3 5 3 2 4 3 3 1 1 2 3 0 3 4 4 4 6 6 3 3 2 2 3 5 6 6 5 8 9 7 6 3 3 4 5 3 3 2 3 4 4 3 3 5 3 2 4 3 5 7 3 2 3 5 4 6 10 11 11 11 11 10
3 3 6 11 15 10 6 4 3 4 4 5 8 8 2 4 3 7 3 1 2 0 2 4 3 2 2 3 2 2 3 4 3 2 2 1 0 2 1 4 6 5 4 3 5 6 3 1 3 5 4 5 9 14 13 11 12 9 4 4 5 3 3 4 4 5 3 4 5 4 5 2 4 4 4 4 2 2 2 3 4 5 8 9 10 10 10 10
2 6 16 10 15 10 5 3 4 4 4 8 11 6 2 4 2 4 3 5 4 2 3 3 3 3 1 1 2 2 2 2 3 3 3 4 4 3 3 2 7 6 3 3 5 6 5 1 3 5 5 6 8 10 9 10 11 8 6 5 5 5 4 3 3 2 1 4 4 2 4 1 4 5 4 3 1 3 3 2 0 4 6 7 10 11 9 10
2 4 14 10 13 9 5 4 4 4 6 9 9 5 2 4 1 2 4 6 4 3 5 4 3 2 0 1 3 2 2 2 1 2 3 3 3 3 2 1 6 6 3 2 1 3 3 1 1 4 4 5 6 5 6 8 9 6 6 7 9 10 9 8 4 2 2 3 2 4 2 2 3 4 5 5 4 4 5 5 3 2 4 6 7 8 10 11
4 3 5 7 10 7 4 4 4 5 7 9 8 7 4 2 3 2 1 5 4 2 4 4 3 3 2 2 3 2 3 4 2 2 4 4 3 4 5 6 7 3 3 2 2 1 1 1 2 2 2 3 3 3 2 4 6 6 7 12 10 8 8 9 4 4 2 4 4 5 4 1 2 2 2 4 4 4 4 4 4 3 3 5 5 5 7 9
3 2 3 4 5 5 4 4 5 6 6 6 6 5 3 1 2 4 3 4 2 1 4 5 5 4 2 4 4 3 6 7 5 2 1 3 3 4 7 10 8 5 5 3 1 0 1 2 1 4 4 3 4 4 4 5 6 7 9 16 16 14 14 12 7 5 5 4 4 3 9 8 3 4 4 3 2 0 0 2 4 5 5 5 5 6 6 5
2 2 3 2 1 4 4 4 5 6 6 3 1 3 3 4 5 6 5 1 1 1 3 4 4 4 2 2 3 3 3 4 5 4 2 2 2 2 5 8 6 5 7 4 4 3 1 2 2 1 4 4 6 6 7 8 8 7 11 15 15 16 17 14 9 9 7 2 3 3 11 13 7 7 7 7 5 3 2 1 4 5 6 6 6 7 9 9
2 3 4 5 3 4 4 6 7 9 9 6 2 2 6 5 3 2 3 0 1 1 1 2 4 6 6 4 4 3 2 3 4 4 3 4 3 2 3 6 5 4 6 6 2 2 1 1 4 5 5 6 7 7 7 8 6 9 13 14 14 15 16 14 12 14 12 4 5 10 13 10 8 9 8 7 6 5 1 1 5 7 7 8 8 9 8 8
3 3 6 7 6 6 8 13 13 9 6 2 2 3 2 4 6 5 1 2 3 4 5 3 5 7 8 5 6 1 1 3 3 3 2 2 5 3 1 4 5 6 7 6 3 3 2 2 3 5 7 9 9 7 6 7 8 10 13 13 13 13 14 14 14 16 16 11 4 6 12 8 4 7 6 4 5 8 5 3 7 8 8 7 7 6 6 6
4 3 5 6 6 7 8 11 12 8 3 3 2 2 2 3 8 6 3 1 3 4 4 4 6 7 8 5 4 2 0 6 4 2 2 3 4 1 0 1 3 5 5 4 2 2 2 2 3 4 4 7 7 5 5 7 7 8 11 13 13 13 12 13 14 14 11 10 11 8 4 6 2 4 3 3 5 9 7 5 7 7 6 6 5 4 5 6
10 9 8 5 4 5 8 8 7 8 4 2 1 3 2 5 7 6 2 2 3 4 4 7 7 8 7 4 0 3 3 5 2 3 3 4 3 2 3 3 3 3 3 2 2 0 0 2 2 3 3 4 5 5 5 7 7 9 11 12 11 11 9 9 11 11 8 6 7 11 5 3 6 5 3 7 8 11 10 9 7 4 4 6 6 4 3 2
13 13 9 5 4 4 6 7 6 6 5 1 3 3 3 4 2 1 1 3 4 3 5 5 6 5 6 5 4 5 6 5 5 7 4 3 4 1 3 4 2 1 1 1 2 2 1 1 1 3 1 2 5 8 7 6 5 5 8 10 9 9 8 9 10 11 9 5 3 4 4 5 7 5 7 10 11 10 9 8 5 1 3 7 7 6 6 5
Wind_Direction
349 348 346 344 342 341 339 337 336 332 330 327 323 323 320 320 319 316 318 316 314 313 316 319 319 322 325 330 335 338 335 328 324 302 254 243 219 219 241 256 266 245 237 256 236 243 253 221 223 233 241 246 227 240 190 113 107 126 134 160 166 230 172 176 183 172 148 138 157 212 242 168 140 255 194 51 29 192 142 128 136 129 127 120 127 133 133 138
349 348 347 345 344 342 341 339 336 334 333 331 328 324 321 323 323 321 320 318 317 317 321 321 320 325 329 335 340 344 337 324 308 278 263 247 202 213 247 255 249 238 239 239 221 225 239 219 213 218 225 236 226 227 199 143 181 179 163 138 187 216 184 189 178 169 153 151 157 188 241 170 163 204 136 107 167 178 149 130 127 120 118 119 129 132 133 140
351 351 349 348 347 345 344 342 340 337 335 335 333 328 323 324 324 321 320 321 322 323 324 321 322 327 335 341 346 350 333 316 294 262 275 263 215 218 236 244 243 245 247 234 220 223 237 247 235 218 210 227 236 227 184 158 177 222 271 125 220 201 164 261 172 168 155 143 148 174 228 165 178 201 142 180 175 187 157 131 124 121 126 131 133 133 139 141
352 351 350 350 349 347 346 344 344 341 338 338 337 334 330 327 325 323 325 328 329 329 325 323 326 329 341 347 352 354 326 306 285 215 25 28 197 209 224 237 249 256 252 236 233 240 254 276 279 252 223 234 246 232 190 177 162 279 279 164 204 179 157 241 162 150 142 137 145 156 161 153 179 58 20 198 180 189 135 125 129 131 135 135 135 140 143 138
354 353 352 351 350 349 348 347 347 345 343 343 342 341 337 334 331 331 335 336 334 333 329 329 330 333 344 347 357 353 326 326 102 131 74 29 138 205 223 237 250 250 243 235 242 253 262 274 278 266 239 242 259 253 214 191 138 114 273 233 187 170 153 232 144 134 133 130 131 130 136 144 111 33 17 43 157 160 119 126 132 131 136 137 140 144 140 140
357 356 355 353 351 351 350 349 349 348 347 346 346 344 342 340 336 335 337 335 335 334 333 334 332 338 347 346 356 351 328 359 332 123 82 33 145 213 225 238 241 228 220 223 239 250 258 258 255 255 239 239 252 257 240 177 105 107 275 265 167 136 128 161 128 125 125 114 122 137 142 117 85 70 359 72 212 219 119 127 130 131 137 138 142 142 142 150
359 357 357 355 354 353 352 351 350 350 348 346 344 341 339 338 334 333 332 333 338 336 335 333 333 343 349 347 353 325 245 276 288 206 63 348 195 233 236 231 216 199 197 214 231 234 247 250 240 234 242 249 242 251 256 108 95 106 128 92 94 93 107 122 104 114 116 108 133 147 123 118 114 118 270 165 237 255 128 126 129 136 137 140 145 144 148 152
360 359 357 356 356 354 354 353 352 351 349 346 342 338 335 333 330 328 328 332 335 336 335 332 336 348 353 355 345 270 237 240 248 142 336 303 270 250 223 199 192 188 194 213 223 227 245 244 233 240 247 252 254 271 278 89 94 107 124 106 92 95 99 91 89 99 103 100 101 104 100 116 133 131 163 210 241 251 137 128 134 140 138 146 148 147 153 152
0 359 358 357 356 355 354 353 353 352 349 346 342 338 333 329 326 324 327 329 330 332 332 331 336 351 358 349 307 301 287 208 194 95 47 325 296 237 190 177 182 185 198 221 230 242 257 241 230 235 244 264 274 286 285 96 102 125 123 106 95 100 98 87 82 84 90 84 76 93 81 62 103 124 167 234 251 231 138 131 141 144 144 154 149 154 158 151
359 359 358 357 356 354 353 353 352 352 348 345 342 338 332 327 323 324 326 325 326 326 327 331 336 353 358 318 284 300 297 303 90 107 108 25 323 193 174 178 182 186 205 224 228 242 255 248 251 238 242 271 271 274 277 107 113 122 110 97 90 91 88 76 70 78 85 76 78 107 97 51 24 117 177 236 259 215 139 135 146 147 150 156 151 160 157 151
357 357 357 357 355 354 352 352 352 349 346 343 342 340 335 327 320 320 324 324 322 319 324 328 339 360 350 306 276 256 294 332 343 267 149 28 305 188 177 185 186 191 211 229 230 236 247 255 269 267 248 286 277 281 306 109 116 120 108 96 85 77 68 49 53 54 50 83 139 128 100 29 316 190 192 217 243 190 138 140 150 151 155 153 154 163 154 154
355 355 355 355 354 352 350 350 349 346 342 339 339 339 337 331 323 319 322 327 319 312 318 319 346 10 340 287 239 242 286 320 305 285 234 220 251 213 195 199 195 198 214 232 236 235 243 258 271 268 277 315 296 301 89 115 120 121 114 103 96 80 66 46 50 2 318 183 198 144 96 15 323 176 192 210 214 157 135 147 154 155 153 146 158 162 148 148
354 353 352 352 351 350 348 346 345 343 339 335 334 334 335 331 325 322 322 328 321 309 308 306 345 7 324 266 249 251 266 283 281 281 264 241 230 220 216 215 209 207 221 239 249 249 246 252 271 275 278 302 303 333 60 126 128 122 115 111 116 92 67 76 59 338 304 357 343 336 107 312 296 210 215 221 171 138 139 156 154 153 147 145 162 150 136 138
353 351 350 350 349 348 345 344 343 340 336 333 331 330 331 329 324 322 321 326 323 307 294 302 347 22 284 262 277 284 286 279 270 265 248 225 221 218 213 220 222 214 221 242 255 269 269 248 257 277 283 296 299 326 357 135 138 128 122 124 134 126 133 150 97 8 295 351 328 326 118 201 269 275 278 278 138 138 151 162 151 149 143 145 156 138 132 134
350 349 348 347 346 345 343 342 339 335 334 333 331 328 326 326 322 318 319 322 319 300 295 301 287 231 272 268 273 279 288 287 257 253 236 213 221 218 205 214 229 224 222 238 248 272 286 262 229 263 288 291 272 292 296 164 153 143 138 154 159 139 136 151 160 180 192 170 281 307 109 169 277 274 289 317 124 143 159 163 152 150 142 145 154 140 135 140
346 346 345 344 343 342 340 339 334 331 330 331 332 329 324 322 319 316 316 315 312 289 285 297 232 206 269 295 278 265 241 189 229 249 234 219 229 216 198 211 224 226 226 238 248 274 292 292 106 283 275 274 255 245 274 255 165 166 171 166 151 138 138 155 184 198 198 143 144 296 129 134 282 259 281 305 187 145 164 169 156 150 143 150 159 144 140 156
343 344 342 341 340 338 338 335 331 327 326 327 330 328 324 318 312 313 314 311 316 289 261 281 267 219 251 282 291 296 238 213 215 227 236 245 253 229 184 202 221 220 226 240 241 253 287 214 134 268 247 251 259 215 242 267 206 190 188 136 103 112 145 150 177 210 203 152 160 236 165 156 202 213 263 288 223 163 182 182 162 150 143 156 162 144 146 159
340 340 339 338 337 334 334 333 329 325 323 324 327 329 324 313 305 309 321 329 329 293 261 273 291 288 259 277 294 31 35 338 268 203 240 256 275 267 193 200 222 201 211 235 230 223 247 152 158 227 220 219 253 227 199 225 231 179 139 105 96 121 183 174 179 185 173 166 177 185 203 177 154 177 268 300 235 186 210 198 170 152 144 159 163 146 147 155
338 338 336 335 333 332 332 330 326 322 322 321 326 330 323 310 302 303 305 251 264 292 289 242 201 276 288 257 295 113 56 341 320 193 248 250 263 275 239 225 226 203 198 188 201 200 200 200 182 218 237 211 213 226 226 232 242 149 118 131 139 145 210 203 180 166 159 158 176 178 191 175 155 176 203 282 262 205 229 214 180 162 149 161 166 148 148 161
337 336 334 332 331 329 328 327 323 321 322 322 329 336 327 319 337 327 192 226 225 231 271 254 199 251 297 148 89 255 186 254 270 216 244 244 226 237 235 226 211 208 218 197 190 190 194 216 206 210 228 224 214 219 233 249 260 129 116 132 134 135 179 186 125 81 116 142 185 179 187 183 169 180 190 243 262 251 278 218 189 182 156 166 169 149 153 170
336 335 332 331 328 326 326 323 320 320 320 321 328 339 306 313 346 358 341 267 245 232 246 254 237 243 346 319 320 328 183 168 210 229 226 224 222 211 182 200 212 203 222 234 220 179 188 216 223 220 225 231 228 218 222 244 261 169 121 128 124 129 143 132 117 114 119 130 159 11 295 202 174 176 190 226 231 225 265 226 197 197 171 172 169 151 156 174
336 335 330 329 325 324 324 319 318 318 315 315 317 295 259 293 337 354 345 297 286 272 240 238 251 220 154 259 346 43 300 213 201 213 192 197 228 215 168 185 214 215 208 230 245 175 183 222 234 232 230 232 237 234 225 231 244 186 119 123 119 124 105 94 125 141 127 109 138 142 244 235 226 200 202 303 266 244 295 294 253 205 184 178 167 156 162 170
337 333 330 330 324 323 322 317 317 313 309 305 287 259 273 299 349 359 343 284 294 299 268 236 277 256 121 19 69 94 263 251 214 188 163 172 237 224 213 212 217 226 210 208 222 188 181 215 227 238 244 236 236 240 239 236 233 158 134 138 138 150 134 113 143 134 108 30 150 149 165 268 301 308 315 330 298 330 332 309 305 279 207 193 174 165 164 164
337 332 331 328 323 324 322 316 312 312 316 303 277 275 288 307 353 0 338 270 283 291 287 348 319 344 71 31 33 233 242 233 252 161 139 173 252 227 221 239 232 232 224 209 214 218 223 211 203 223 245 248 244 236 235 242 231 168 157 151 150 166 157 131 139 129 98 20 145 135 112 223 223 256 251 181 240 299 2 302 290 291 302 257 179 171 166 161
337 333 330 327 324 324 323 317 311 325 328 297 275 290 303 318 349 354 339 274 283 268 240 214 300 53 81 126 172 240 237 220 256 128 141 195 245 249 249 258 241 242 248 224 211 222 244 232 198 200 225 246 251 241 234 235 235 191 174 169 163 166 148 124 129 131 118 190 198 157 125 221 200 212 226 179 152 235 151 243 265 271 296 300 194 177 175 162
337 332 329 328 324 322 326 319 314 331 325 302 325 345 342 344 344 346 350 244 283 254 180 190 215 107 131 167 177 243 240 281 14 104 160 217 235 256 282 290 252 238 259 244 220 216 236 258 231 191 203 228 244 248 241 232 227 207 193 175 157 152 141 132 137 146 146 174 194 181 130 82 231 226 219 175 184 225 190 207 241 245 233 270 237 183 179 172
337 332 329 327 324 326 328 299 313 327 317 313 340 345 348 342 330 331 344 219 288 222 173 168 171 146 167 182 218 248 146 25 322 124 199 221 204 237 266 267 263 245 262 271 265 212 195 262 283 251 216 211 229 244 227 221 2 254 206 154 147 152 147 143 149 160 143 114 154 181 154 120 244 231 196 168 186 219 212 211 226 224 209 227 239 201 183 183
336 332 328 325 324 323 309 295 311 319 301 314 327 332 340 328 317 326 336 329 48 246 242 118 169 182 178 192 232 244 121 151 233 196 273 242 188 228 278 261 284 299 280 252 242 195 172 222 253 263 254 211 228 242 168 126 223 253 269 151 150 157 150 148 154 159 143 117 132 194 184 162 246 216 168 167 190 213 214 210 213 210 203 205 223 224 192 189
336 332 325 324 323 317 308 299 292 304 319 321 321 324 325 315 310 353 203 289 140 181 144 132 214 196 180 191 226 223 145 160 222 193 254 265 210 220 275 274 295 310 297 285 273 259 205 232 245 248 246 210 243 254 156 160 212 236 247 165 142 148 152 159 165 150 143 138 176 191 185 172 215 193 164 168 200 215 210 206 207 204 199 197 209 225 202 189
335 331 322 322 323 319 324 299 273 314 339 329 321 319 314 308 308 90 267 275 179 164 141 151 266 275 229 203 211 216 135 130 219 159 168 276 231 210 238 274 282 302 307 316 296 272 264 276 277 270 243 190 249 302 160 202 255 259 239 143 135 155 160 166 155 117 132 204 202 184 182 181 184 190 180 186 205 207 199 196 199 198 196 193 197 214 211 190
332 328 319 316 311 294 303 285 268 319 342 332 324 317 307 298 185 249 278 227 145 334 310 134 21 317 314 74 210 225 104 127 162 87 114 317 282 234 260 270 274 311 303 301 277 262 260 270 262 190 15 3 339 316 244 226 253 268 256 145 156 173 158 154 129 110 153 245 204 179 179 186 203 206 197 206 210 195 189 192 191 192 192 189 189 199 211 197
329 322 311 305 297 275 259 257 277 309 331 331 324 314 306 314 215 233 238 192 69 310 316 103 35 347 2 15 359 42 58 120 3 68 112 89 306 265 254 233 198 334 300 308 309 270 253 267 254 127 89 349 312 293 271 250 255 271 282 162 150 139 138 175 163 158 209 250 196 167 168 184 235 225 199 206 208 189 187 191 187 187 186 184 185 188 202 206
326 316 305 298 289 271 260 267 285 300 315 322 318 300 291 310 269 259 311 12 296 252 281 187 164 354 335 304 12 41 15 339 20 44 110 147 265 262 269 275 259 166 268 311 328 307 253 256 268 151 127 189 241 256 257 243 231 237 247 149 121 104 118 218 209 182 225 263 172 151 156 184 244 234 203 200 199 184 183 185 179 183 184 181 181 182 193 205
323 309 299 292 280 270 266 271 280 290 301 308 306 289 295 281 268 318 13 18 346 313 316 322 35 19 326 304 41 50 23 15 25 1 304 98 351 310 301 297 296 258 275 302 310 319 314 265 249 215 143 160 219 245 247 259 245 234 239 122 132 149 151 216 221 188 238 278 138 142 153 236 219 274 245 184 176 165 168 171 168 175 179 177 178 179 187 196
326 311 300 288 276 271 263 261 267 276 285 294 294 300 295 264 278 358 35 351 333 338 321 330 24 13 331 19 47 59 72 32 15 346 335 41 18 320 298 271 283 268 289 313 343 329 296 280 280 260 169 159 196 243 250 285 301 256 253 81 147 174 165 227 264 267 254 314 93 134 160 298 224 329 1 81 127 137 142 147 155 167 171 171 177 179 184 188
334 322 309 287 274 264 241 243 254 247 249 279 306 287 275 278 321 18 41 305 324 343 316 328 29 358 330 58 58 51 92 76 22 353 342 36 35 298 299 281 14 11 316 292 343 345 308 303 319 308 210 167 192 236 226 200 227 261 239 208 245 245 212 221 293 302 302 144 123 125 126 330 326 351 4 38 93 114 117 127 144 160 166 168 179 182 183 182
336 322 304 281 271 253 235 236 224 217 224 279 284 274 288 296 337 3 14 344 315 301 292 313 56 325 318 38 70 33 80 83 35 12 353 7 270 304 319 344 37 331 296 317 47 345 326 299 304 305 249 194 216 226 226 224 224 263 252 192 225 267 270 110 85 318 334 220 216 124 135 170 178 169 339 9 107 123 124 137 138 144 159 168 179 180 175 170
329 313 290 273 262 246 235 222 206 212 225 287 269 275 283 273 82 32 13 355 310 301 322 355 90 266 320 356 357 359 90 124 170 155 54 4 311 341 330 342 357 286 288 10 69 281 329 309 292 307 305 242 220 200 230 269 261 270 286 238 207 236 244 132 139 228 250 244 234 124 136 153 171 185 191 195 181 151 140 155 160 153 158 167 172 171 164 154
322 297 282 273 254 227 210 192 192 224 252 257 261 264 270 277 76 87 47 337 305 312 349 351 121 163 320 2 1 346 23 134 167 130 76 215 198 321 305 314 328 328 358 3 343 222 340 320 275 319 339 326 295 130 179 267 258 254 281 282 246 210 192 165 169 180 193 240 203 122 117 98 255 228 190 199 191 161 162 175 175 167 164 171 167 165 165 156
315 266 274 263 219 180 183 185 190 234 244 250 263 267 276 316 17 55 69 20 310 339 6 330 357 8 312 21 84 340 316 3 101 115 163 200 176 276 310 328 327 343 356 334 310 51 25 339 292 327 346 343 343 99 207 259 240 216 245 282 270 245 187 181 199 194 202 242 183 140 122 337 302 288 214 216 201 167 176 174 173 172 170 177 174 168 170 163
297 313 265 220 175 161 176 188 206 226 238 253 257 264 277 26 343 321 357 146 223 168 275 294 310 301 331 5 48 325 315 6 41 50 239 200 168 211 320 314 315 337 336 314 328 27 25 331 312 324 336 325 325 331 322 321 312 259 202 225 241 230 172 177 249 226 200 234 203 140 127 229 283 300 226 217 196 183 189 153 171 188 173 176 177 173 171 165
245 295 261 196 163 172 200 193 229 228 225 251 252 261 263 95 308 300 330 303 274 80 240 276 329 3 10 10 340 326 355 15 8 354 357 342 184 118 138 291 305 308 306 342 27 13 347 347 332 319 305 311 322 318 313 319 317 305 274 243 244 237 189 177 229 234 202 227 220 140 108 212 284 309 252 221 140 132 175 163 189 187 168 168 167 169 171 164
226 295 292 254 166 175 245 238 246 249 238 252 255 260 118 104 319 310 20 352 342 15 313 312 11 18 90 147 297 340 64 44 346 346 3 358 357 43 85 306 317 327 342 15 22 356 338 9 352 318 304 323 324 302 298 326 332 314 292 275 256 266 271 220 215 244 226 231 222 124 90 199 281 306 297 298 33 120 117 57 145 156 151 156 159 165 166 153
309 285 298 275 175 179 263 253 252 272 264 259 260 272 168 147 194 312 359 342 335 357 326 329 17 14 336 16 317 295 156 152 23 20 16 3 328 345 36 349 334 358 53 64 30 360 336 340 40 340 322 334 340 325 323 346 350 328 314 306 266 258 285 289 288 28 330 277 78 90 113 196 255 304 329 337 1 68 65 24 9 88 118 135 145 152 156 147
301 237 277 256 198 198 251 251 271 286 289 294 291 289 277 195 149 127 345 298 279 307 318 319 332 298 283 329 309 324 20 17 26 40 9 355 336 351 12 359 338 353 104 93 41 31 323 226 114 59 337 321 327 332 308 317 324 311 342 355 326 298 324 320 325 54 320 302 56 104 151 140 285 279 315 318 343 35 37 19 12 23 85 118 112 110 134 143
319 270 279 269 214 216 229 237 263 269 277 295 292 286 295 17 96 130 195 242 223 358 317 313 319 313 334 338 326 29 33 8 3 28 5 357 4 2 357 348 342 8 48 41 348 342 307 272 178 156 175 237 257 267 272 275 298 317 5 18 5 359 15 21 29 22 318 321 31 118 147 134 186 227 192 210 241 105 131 65 45 33 53 83 87 74 68 93
299 267 293 343 262 249 234 222 234 244 251 253 314 323 280 209 179 165 183 238 55 100 261 271 282 285 300 338 346 35 50 13 5 1 352 10 7 341 337 323 318 360 360 308 227 182 181 296 331 174 194 235 265 288 306 299 305 347 21 27 19 14 22 36 32 359 340 12 61 120 132 133 175 219 201 188 182 180 206 122 76 63 58 66 79 75 58 51
284 270 321 10 344 299 306 284 257 238 247 247 177 270 287 273 250 182 139 125 289 144 145 265 272 292 315 23 53 16 12 45 20 358 3 359 327 313 323 298 293 348 332 300 251 125 138 43 2 340 315 310 298 290 304 315 340 26 33 30 31 30 31 36 26 6 4 29 153 155 140 139 183 210 211 194 157 134 156 107 84 77 68 68 72 71 70 70
318 306 339 0 336 307 305 298 287 262 260 303 143 196 299 315 287 282 119 184 226 96 72 326 308 312 322 39 73 354 334 77 36 11 32 317 298 310 337 311 330 346 322 314 3 55 55 30 356 339 323 312 304 303 332 358 17 36 35 31 38 42 38 36 32 19 13 10 19 127 129 129 205 222 218 211 139 119 130 122 91 83 78 81 90 93 98 105
348 340 338 338 322 311 304 305 311 306 313 56 42 289 305 292 285 303 16 346 312 53 68 298 321 337 332 32 72 304 18 117 144 185 186 246 268 286 58 294 321 320 306 313 4 76 66 323 314 8 347 303 301 323 3 20 22 33 38 32 35 43 38 36 37 27 19 15 358 351 90 105 305 259 179 145 107 102 105 93 84 89 87 82 86 89 100 120
350 344 342 320 304 321 307 304 320 312 298 118 119 305 290 266 279 298 331 65 39 12 325 311 341 357 332 329 339 307 9 87 149 244 214 233 245 162 156 192 213 256 286 331 348 356 148 241 243 51 9 301 325 355 22 42 30 25 33 30 30 41 39 39 45 34 29 49 4 332 332 24 324 313 51 51 59 79 86 82 79 103 124 103 89 65 61 123
348 343 347 326 292 309 300 296 304 297 292 221 206 234 258 257 242 214 311 49 45 293 275 306 343 349 319 328 26 12 5 26 346 323 318 292 293 270 205 216 203 226 285 20 355 291 270 223 133 77 9 312 7 11 19 48 49 21 18 22 34 48 48 45 47 38 32 56 64 337 317 313 311 333 43 38 35 50 69 83 78 49 107 106 103 92 84 88